When you browse on this site, cookies collect data to enhance your experience and personalize the content and advertising you see.
Visit our Privacy Policy to learn more. By continuing to use the site, you agree to this use of cookies and data.
  • In Hungary
  • List of Countries
  • For 7 days
  • Water Temperature
  • Satellite Maps
  • Weather Map
  • News
  • Weather Widgets
  • user-avatar
    Login

    Hourly Weather Ames

    Today, 26 June, Wednesday

    Time Temperature Precipitation Wind Pressure Humidity
    00:00 +20°C° 0.1 mm 1 mps 736 mmHg 88%
    01:00 +20°C° 0.1 mm 1 mps 736 mmHg 88%
    02:00 +18°C° 0.1 mm 0 mps 736 mmHg 88%
    03:00 +18°C° 0.1 mm 0 mps 736 mmHg 87%
    04:00 +18°C° 0 mm 0 mps 736 mmHg 87%
    05:00 +21°C° 0 mm 1 mps 737 mmHg 87%
    06:00 +21°C° 0 mm 1 mps 737 mmHg 87%
    07:00 +23°C° 0 mm 1 mps 737 mmHg 84%
    08:00 +24°C° 0 mm 2 mps 737 mmHg 82%
    09:00 +26°C° 0 mm 3 mps 737 mmHg 79%
    10:00 +27°C° 0 mm 3 mps 737 mmHg 78%
    11:00 +28°C° 0 mm 3 mps 737 mmHg 76%
    12:00 +29°C° 0 mm 3 mps 737 mmHg 75%
    13:00 +30°C° 0 mm 4 mps 737 mmHg 76%
    14:00 +30°C° 0 mm 4 mps 737 mmHg 77%
    15:00 +32°C° 0 mm 5 mps 736 mmHg 78%
    16:00 +32°C° 0.1 mm 4 mps 736 mmHg 79%
    17:00 +32°C° 0.1 mm 4 mps 736 mmHg 81%
    18:00 +31°C° 0.1 mm 3 mps 736 mmHg 83%
    19:00 +29°C° 0.1 mm 3 mps 736 mmHg 86%
    20:00 +28°C° 0.1 mm 3 mps 736 mmHg 90%
    21:00 +27°C° 0.1 mm 3 mps 736 mmHg 93%
    22:00 +26°C° 0 mm 3 mps 737 mmHg 94%
    23:00 +26°C° 0 mm 3 mps 737 mmHg 95%

    Tomorrow, 27 June, Thursday

    Time Temperature Precipitation Wind Pressure Humidity
    00:00 +26°C° 0 mm 3 mps 737 mmHg 96%
    01:00 +25°C° 0.3 mm 3 mps 737 mmHg 96%
    02:00 +25°C° 0.3 mm 3 mps 737 mmHg 96%
    03:00 +25°C° 0.3 mm 3 mps 738 mmHg 97%
    04:00 +25°C° 0.2 mm 4 mps 738 mmHg 97%
    05:00 +25°C° 0.2 mm 4 mps 738 mmHg 97%
    06:00 +25°C° 0.2 mm 4 mps 738 mmHg 96%
    07:00 +26°C° 0 mm 5 mps 738 mmHg 93%
    08:00 +27°C° 0 mm 5 mps 738 mmHg 89%
    09:00 +29°C° 0 mm 5 mps 738 mmHg 86%
    10:00 +30°C° 0 mm 6 mps 738 mmHg 82%
    11:00 +32°C° 0 mm 7 mps 737 mmHg 78%
    12:00 +33°C° 0 mm 7 mps 737 mmHg 73%
    13:00 +33°C° 0 mm 7 mps 737 mmHg 73%
    14:00 +33°C° 0 mm 8 mps 737 mmHg 73%
    15:00 +34°C° 0 mm 8 mps 737 mmHg 73%
    16:00 +33°C° 0 mm 7 mps 737 mmHg 76%
    17:00 +32°C° 0 mm 6 mps 737 mmHg 79%
    18:00 +32°C° 0 mm 5 mps 737 mmHg 82%
    19:00 +30°C° 0 mm 5 mps 737 mmHg 84%
    20:00 +28°C° 0 mm 5 mps 737 mmHg 87%
    21:00 +27°C° 0 mm 5 mps 737 mmHg 89%
    22:00 +27°C° 0 mm 4 mps 737 mmHg 91%
    23:00 +26°C° 0 mm 4 mps 737 mmHg 93%

    Day after tomorrow, 28 June, Friday

    Time Temperature Precipitation Wind Pressure Humidity
    00:00 +25°C° 0 mm 4 mps 737 mmHg 94%
    01:00 +25°C° 0 mm 3 mps 737 mmHg 95%
    02:00 +25°C° 0 mm 3 mps 737 mmHg 96%
    03:00 +24°C° 0 mm 3 mps 737 mmHg 97%
    04:00 +25°C° 0 mm 3 mps 737 mmHg 96%
    05:00 +25°C° 0 mm 3 mps 737 mmHg 96%
    06:00 +25°C° 0 mm 4 mps 737 mmHg 95%
    07:00 +26°C° 0 mm 4 mps 737 mmHg 92%
    08:00 +27°C° 0 mm 4 mps 738 mmHg 88%
    09:00 +29°C° 0 mm 5 mps 738 mmHg 85%
    10:00 +30°C° 0 mm 5 mps 738 mmHg 81%
    11:00 +32°C° 0 mm 5 mps 738 mmHg 77%
    12:00 +33°C° 0 mm 4 mps 738 mmHg 74%
    13:00 +33°C° 0 mm 4 mps 738 mmHg 73%
    14:00 +34°C° 0 mm 4 mps 737 mmHg 72%
    15:00 +34°C° 0 mm 4 mps 737 mmHg 72%
    16:00 +34°C° 0 mm 4 mps 737 mmHg 75%
    17:00 +33°C° 0 mm 3 mps 737 mmHg 79%
    18:00 +33°C° 0 mm 3 mps 737 mmHg 82%
    19:00 +31°C° 0 mm 3 mps 737 mmHg 85%
    20:00 +29°C° 0 mm 3 mps 737 mmHg 88%
    21:00 +28°C° 0 mm 3 mps 738 mmHg 91%
    22:00 +28°C° 0 mm 3 mps 738 mmHg 93%
    23:00 +27°C° 0 mm 3 mps 738 mmHg 95%

    29 June, Saturday

    Time Temperature Precipitation Wind Pressure Humidity
    00:00 +27°C° 0 mm 3 mps 738 mmHg 96%
    01:00 +26°C° 0 mm 3 mps 738 mmHg 96%
    02:00 +26°C° 0 mm 3 mps 737 mmHg 97%
    03:00 +26°C° 0 mm 3 mps 737 mmHg 97%
    04:00 +26°C° 0 mm 3 mps 738 mmHg 97%
    05:00 +26°C° 0 mm 3 mps 738 mmHg 96%
    06:00 +26°C° 0 mm 3 mps 738 mmHg 96%
    07:00 +27°C° 0 mm 3 mps 738 mmHg 92%
    08:00 +29°C° 0 mm 3 mps 738 mmHg 88%
    09:00 +30°C° 0 mm 4 mps 738 mmHg 85%
    10:00 +32°C° 0.4 mm 4 mps 738 mmHg 83%
    11:00 +33°C° 0.4 mm 4 mps 738 mmHg 81%
    12:00 +34°C° 0.4 mm 4 mps 738 mmHg 78%
    13:00 +34°C° 0.2 mm 5 mps 738 mmHg 76%
    14:00 +35°C° 0.2 mm 5 mps 738 mmHg 74%
    15:00 +35°C° 0.2 mm 5 mps 737 mmHg 71%
    16:00 +35°C° 0 mm 4 mps 737 mmHg 75%
    17:00 +34°C° 0 mm 4 mps 737 mmHg 78%
    18:00 +34°C° 0 mm 3 mps 737 mmHg 82%
    19:00 +31°C° 0 mm 3 mps 737 mmHg 86%
    20:00 +30°C° 0 mm 3 mps 737 mmHg 90%
    21:00 +28°C° 0 mm 3 mps 737 mmHg 95%
    22:00 +28°C° 0 mm 3 mps 737 mmHg 95%
    23:00 +27°C° 0 mm 3 mps 738 mmHg 95%

    30 June, Sunday

    Time Temperature Precipitation Wind Pressure Humidity
    00:00 +27°C° 0 mm 4 mps 738 mmHg 95%
    01:00 +26°C° 0 mm 4 mps 738 mmHg 96%
    02:00 +26°C° 0 mm 4 mps 737 mmHg 96%
    03:00 +25°C° 0 mm 4 mps 737 mmHg 96%
    04:00 +25°C° 0 mm 3 mps 737 mmHg 95%
    05:00 +25°C° 0 mm 3 mps 738 mmHg 95%
    06:00 +25°C° 0 mm 3 mps 738 mmHg 94%
    07:00 +26°C° 0 mm 4 mps 738 mmHg 90%
    08:00 +28°C° 0 mm 4 mps 738 mmHg 86%
    09:00 +29°C° 0 mm 4 mps 738 mmHg 81%
    10:00 +30°C° 0 mm 5 mps 738 mmHg 78%
    11:00 +32°C° 0 mm 5 mps 738 mmHg 75%
    12:00 +33°C° 0 mm 5 mps 738 mmHg 72%
    13:00 +34°C° 0 mm 5 mps 737 mmHg 71%
    14:00 +34°C° 0 mm 5 mps 737 mmHg 70%
    15:00 +34°C° 0 mm 5 mps 736 mmHg 69%
    16:00 +34°C° 0 mm 4 mps 736 mmHg 73%
    17:00 +33°C° 0 mm 4 mps 736 mmHg 77%
    18:00 +31°C° 0 mm 3 mps 736 mmHg 81%
    19:00 +30°C° 0 mm 3 mps 736 mmHg 85%
    20:00 +28°C° 0 mm 3 mps 736 mmHg 89%
    21:00 +27°C° 0 mm 3 mps 736 mmHg 93%
    22:00 +26°C° 0 mm 3 mps 736 mmHg 93%
    23:00 +25°C° 0 mm 3 mps 737 mmHg 94%

    1 July, Monday

    Time Temperature Precipitation Wind Pressure Humidity
    00:00 +25°C° 0 mm 3 mps 737 mmHg 95%
    01:00 +24°C° 0 mm 3 mps 737 mmHg 94%
    02:00 +24°C° 0 mm 3 mps 737 mmHg 94%
    03:00 +24°C° 0 mm 2 mps 737 mmHg 94%
    04:00 +24°C° 0 mm 3 mps 737 mmHg 94%
    05:00 +24°C° 0 mm 3 mps 737 mmHg 93%
    06:00 +24°C° 0 mm 3 mps 737 mmHg 93%
    07:00 +25°C° 0 mm 3 mps 737 mmHg 88%
    08:00 +27°C° 0 mm 3 mps 737 mmHg 84%
    09:00 +28°C° 0 mm 3 mps 737 mmHg 80%
    10:00 +29°C° 0.1 mm 3 mps 737 mmHg 77%
    11:00 +30°C° 0.1 mm 3 mps 737 mmHg 75%
    12:00 +32°C° 0.1 mm 4 mps 737 mmHg 72%
    13:00 +33°C° 0 mm 4 mps 737 mmHg 71%
    14:00 +33°C° 0 mm 4 mps 736 mmHg 69%
    15:00 +33°C° 0 mm 4 mps 736 mmHg 67%
    16:00 +33°C° 0 mm 4 mps 736 mmHg 72%
    17:00 +31°C° 0 mm 3 mps 735 mmHg 76%
    18:00 +31°C° 0 mm 3 mps 735 mmHg 80%
    19:00 +29°C° 0 mm 3 mps 735 mmHg 84%
    20:00 +27°C° 0 mm 3 mps 735 mmHg 87%
    21:00 +26°C° 0 mm 2 mps 735 mmHg 91%
    22:00 +25°C° 0 mm 2 mps 735 mmHg 92%
    23:00 +25°C° 0 mm 2 mps 735 mmHg 93%
    Show more